Volver al catálogo

FENGYUN 1C DEB

ActivoSSO
NORAD 38832·DEBRIS·🇨🇳 China

Lanzado May 10, 1999 desde Taiyuan Satellite Launch Center

Loading…

Próximos Pases (próximas 24 horas)

TLE

ActualizadoSource: Space-Track

Época: Sep 11, 2026, 20:50 UTC

1 38832U 99025EVY 26254.86859252  .00001119  00000-0  69643-3 0  9996
2 38832  99.2464 309.6949 0085113   7.8093 352.4377 14.05333979675930

Sigue FENGYUN 1C DEB en tiempo real con AllMySat

Download on the App Store